Location: Cussy
(47.0410°N, 4.6412°E)
Time: 14:46:11
(UTC+00:00)

Cosmos 1666 Rocket - Visible Passes

Search period start: 20 April 2021 00:00
Search period end: 30 April 2021 00:00
Orbit: 605 x 632 km, 82.5° (Epoch: 19 April)

Date Brightness Start Highest point End Pass type
(mag) Time Alt. Az. Time Alt. Az. Time Alt. Az.
20 Apr 5.7 21:36:35 10° NNE 21:38:45 16° NE 21:38:45 16° NE visible
20 Apr 5.1 23:13:15 10° NNW 23:15:54 34° NNW 23:15:54 34° NNW visible
21 Apr 5.2 21:52:58 10° NNE 21:55:52 24° NE 21:55:52 24° NE visible
21 Apr 5.5 23:30:38 10° NNW 23:33:00 25° NW 23:33:00 25° NW visible
22 Apr 4.7 22:09:45 10° N 22:12:59 37° NE 22:12:59 37° NE visible
22 Apr 5.9 23:48:22 10° NW 23:50:08 17° WNW 23:50:08 17° WNW visible
23 Apr 4.3 22:26:44 10° N 22:30:07 50° N 22:30:07 50° N visible
24 Apr 6.3 00:07:02 10° WNW 00:07:15 10° WNW 00:07:15 10° WNW visible
24 Apr 5.5 21:07:12 10° NNE 21:10:03 16° ENE 21:10:07 16° ENE visible
24 Apr 4.6 22:43:56 10° NNW 22:47:15 44° NW 22:47:15 44° NW visible
25 Apr 4.9 21:23:37 10° NNE 21:27:16 27° ENE 21:27:16 27° ENE visible
25 Apr 5.1 23:01:20 10° NNW 23:04:24 29° WNW 23:04:24 29° WNW visible
26 Apr 4.2 21:40:25 10° N 21:44:25 45° ENE 21:44:25 45° ENE visible
26 Apr 5.7 23:19:05 10° NW 23:21:34 18° WNW 23:21:34 18° WNW visible
27 Apr 3.6 21:57:25 10° N 22:01:35 75° NNE 22:01:35 75° NNE visible
27 Apr 6.2 23:37:55 10° WNW 23:38:44 11° WNW 23:38:44 11° WNW visible
28 Apr 5.4 20:37:50 10° NNE 20:40:44 17° ENE 20:41:38 16° E visible
28 Apr 4.0 22:14:36 10° NNW 22:18:46 55° W 22:18:46 55° W visible
29 Apr 4.7 20:54:16 10° NNE 20:58:07 27° ENE 20:58:49 26° E visible
29 Apr 4.9 22:32:02 10° NNW 22:35:58 31° W 22:35:58 31° W visible
